Димитровград

Россия / Ульяновская область     54°13′03″N   49°37′26″E
темп.,
°C
ветер,
м/с
пор.,
м/с
влажн.,
%
обл.,
%
осадки,
мм/ч
давл.,
гПа
погр.,
м
12 мая, ср
ср1200:00+17в116299 0.0 102616
03:00+15в226567 0.0 102623
06:00+17в266598 0.0 1027178
09:00+22вюв464376 0.0 1027854
12:00+24юв593766 0.0 10262517
15:00+24юв4738100 0.0 10262100
18:00+20ю245896 0.0 1026133
21:00+16юв226765 0.0 102623
13 мая, чт
чт1300:00+15в227221 0.0 102624
03:00+14в266829 0.0 1026110
06:00+16в396128 0.0 1026305
09:00+21вюв5943100 0.0 1025699
12:00+24юв5837100 0.0 10251322
15:00+23вюв4741100 0.0 10241007
18:00+22юв5114595 0.0 1023650
21:00+19юв4135349 0.0 1023351
14 мая, пт
пт1400:00+16юв31164100 0.1 1023235
03:00+14вюв366853 0.3 1023113
06:00+17юв311614 0.0 1023327
09:00+24ю510378 0.0 1023703
12:00+27ю583057 0.0 10231218
15:00+27ююз5932100 0.0 10221419
18:00+24ю411447 0.0 1022487
21:00+18ю3135848 0.0 1022264
15 мая, сб
сб1500:00+16ююв24545 0.0 102263
03:00+15ююв26555 0.0 102297
06:00+17ююв310535 0.0 1022268
09:00+23ю58379 0.0 1022475
12:00+27ююз582930 0.0 10211017
15:00+28ююз59285 0.0 10201620
18:00+24ю38465 0.0 1020184
21:00+19ю23510 0.0 101953
16 мая, вс
вс1600:00+17ю23510 0.0 101937
03:00+16ююв23542 0.0 101948
06:00+19ююв3105790 0.0 1019243
09:00+25ю510415 0.0 1018574
12:00+28ююз583314 0.0 10181692
15:00+29ююз5932100 0.0 10172823
18:00+24юз225499 0.0 101637
21:00+18ююз246288 0.0 101761